Location: �clusier
(49.9361°N, 2.7869°E)
Time: 06:22:26
(UTC+00:00)

Cosmos 292 Rocket - Pass Details

Date: 16 June 2021
Orbit: 674 x 693 km, 74.0° (Epoch: 02 August)

Event Time Altitude Azimuth Distance (km) Brightness Sun altitude
Rises 20:43:53 0° 197° (SSW) 3,052 6.8 -5.9°
Reaches altitude 10° 20:46:12 10° 195° (SSW) 2,138 6.0 -6.2°
Maximum altitude 20:51:00 75° 111° (ESE) 717 3.8 -6.7°
Drops below altitude 10° 20:55:49 10° 27° (NNE) 2,143 6.7 -7.2°
Sets 20:58:08 0° 26° (NNE) 3,060 7.5 -7.4°
